{"data":{"norad_id":56302,"epoch":"2026-09-20T22:30:15.469056Z","epoch_age_seconds":70746,"freshness":"FRESH","line1":"1 56302U 23056S   26263.93767904  .00004929  00000+0  18861-3 0  9996","line2":"2 56302  43.0007 185.9280 0001291 273.9019  86.1685 15.27563310189969","mean_motion":15.2756331,"eccentricity":0.0001291,"inclination_deg":43.0007,"raan_deg":185.928,"arg_perigee_deg":273.9019,"mean_anomaly_deg":86.1685,"bstar":0.00018861,"rev_number":18996,"period_min":94.267778662477,"perigee_km":482.21328678193,"apogee_km":483.98485793582,"semimajor_km":6861.2360723589,"source":"CELESTRAK","updated_at":"2026-09-21T09:00:33.394572Z"}}